Location: Newark
(49.8969°N, 3.3422°E)
Time: 18:43:10
(UTC+00:00)

Tiros 1 - Pass Details

Date: 17 May 2021
Orbit: 630 x 664 km, 48.4° (Epoch: 11 June)

Event Time Altitude Azimuth Distance (km) Brightness Sun altitude
Exits shadow 23:50:00 50° 199° (SSW) 844 7.3 -20.5°
Maximum altitude 23:50:46 56° 162° (SSE) 784 7.2 -20.5°
Drops below altitude 10° 23:55:27 10° 85° (E) 2,072 9.8 -20.5°
Sets 23:57:49 0° 81° (E) 2,980 10.7 -20.5°
